Flag for Switzerland Weather past 2 weeks in Stäfa, Zurich, Switzerland

Now
58 °F

Cool.


Feels Like: 59 °F
Forecast: 47 / 71 °F
Wind: 3 mph from Northeast

Location: Zurich Town / Ville.

Current Time: May 25, 2015 at 12:15:10 AM

Latest Report: May 24, 2015 at 10:00 PM


Visibility: N/A

Pressure: 30.03 "Hg

Humidity: 66%

Dew point: 47 °F

Location of StäfaLocation

Historic Weather in Stäfa — Graph

°F

Stäfa temperature yesterday

Maximum temperature yesterday: 65 °F (at 3:00 PM)
Minimum temperature yesterday: 51 °F (at 6:00 AM)
Average temperature yesterday: 57 °F

Past Weeks' High & Low Weather Summary

 TemperatureHumidityPressure
High81 °F (May 12, 3:00 PM)97% (May 15, 5:00 PM)30.37 "Hg (May 15, 5:00 PM)
Low41 °F (May 21, 1:00 AM)29% (May 12, 3:00 PM)29.71 "Hg (May 18, 7:00 PM)
Average57 °F70%30.09 "Hg
* Reported May 9 10:00 PM — May 24 10:00 PM, Stäfa, Weather by CustomWeather, © 2015

Note: Actual official high and low records may vary slightly from our data, if they occured in-between our weather recording intervals... More about our weather records

Advertising

Stäfa weather history for previous 24 hours

 ConditionsComfort  
Time TempWeatherWind HumidityBarometerVisibility
10:00 PM
Sun, May 24
58 °FCool.3 mph66%30.03 "HgN/A
9:00 PM60 °FCool.6 mph60%30.01 "HgN/A
8:00 PM61 °FRefreshingly cool.7 mph56%30.00 "HgN/A
7:00 PM64 °FMild.7 mph49%29.99 "HgN/A
6:00 PM65 °FMild.8 mph51%29.98 "HgN/A
5:00 PM63 °FMild.9 mph52%30.00 "HgN/A
4:00 PM64 °FMild.8 mph51%30.00 "HgN/A
3:00 PM65 °FMild.7 mph52%30.00 "HgN/A
2:00 PM62 °FRefreshingly cool.12 mph53%30.02 "HgN/A
1:00 PM61 °FRefreshingly cool.6 mph57%30.03 "HgN/A
12:00 PM60 °FRefreshingly cool.8 mph59%30.04 "HgN/A
11:00 AM57 °FCool.6 mph66%30.05 "HgN/A
10:00 AM55 °FCool.3 mph71%30.06 "HgN/A
9:00 AM53 °FCool.5 mph73%30.06 "HgN/A
8:00 AM52 °FCool.3 mph78%30.06 "HgN/A
7:00 AM51 °FCool.3 mph81%30.06 "HgN/A
6:00 AM51 °FCool.3 mph79%30.05 "HgN/A
5:00 AM51 °FCool.3 mph77%30.04 "HgN/A
4:00 AM51 °FCool.5 mph81%30.06 "HgN/A
3:00 AM52 °FCool.No wind81%30.06 "HgN/A
2:00 AM52 °FCool.1 mph80%30.07 "HgN/A
1:00 AM53 °FCool.1 mph75%30.07 "HgN/A
12:00 AM53 °FCool.1 mph74%30.08 "HgN/A
Weather by CustomWeather, © 2015

See weather overviewHow to use our weather pages